(490589) = 2009 WZ135

Discovered at Kitt Peak on 2007-04-15 by Spacewatch.

Orbit

Orbit type: Main Belt

Note: WebGL enabled browser required.

epoch2023-09-13.0
epoch JD2460200.5
perihelion date2019-07-11.02488
perihelion JD2458675.52488
argument of perihelion (°)231.70394
ascending node (°)231.60548
inclination (°)11.20976
eccentricity0.0398643
perihelion distance (AU)2.6237455
Tisserand w.r.t. Jupiter3.3
ΔV w.r.t. Earth (km/sec)10.7
semimajor axis (AU)2.7326819
mean anomaly (°)332.72312
mean daily motion (°/day)0.21818270
aphelion distance (AU)2.842
period (years)4.52
P-vector [x]-0.21847482
P-vector [y]0.94499648
P-vector [z]0.24341407
Q-vector [x]-0.96387466
Q-vector [y]-0.17002799
Q-vector [z]-0.20502713
absolute magnitude16.95
phase slope0.15
uncertainty0
referenceMPEC 2023-W66
observations used176
oppositions11
arc length (days)8395
first opposition used2000
last opposition used2023
residual rms (arc-secs)0.77
perturbers coarse indicatorM-v
perturbers precise indicator003Ek
first observation date used2000-11-25.0
last observation date used2023-11-20.0
computer nameMPCLINUX
JD of orbit computation2457849.369890
perihelion JD uncertainty (days)5.8699E-04
argument of perihelion uncertainty (°)1.3624E-04
ascending node uncertainty (°)1.6660E-05
inclination uncertainty (°)7.2847E-06
eccentricity uncertainty 6.8479E-08
perihelion distance uncertainty (AU)1.7781E-07
Minimum Orbit Intersection Distances (in AU)
for orbit epoch: 2460200.5, reference: E2023-W66
Mercury2.31972
Venus1.91534
Earth1.65276
Mars1.08546
Jupiter2.28274
Saturn6.43425
Uranus15.8084
Neptune27.1517

Observations

179 total observations over interval: 2000 11 25.21768 – 2023 11 20.534723
These data are available for download (format description).

Date (UT) J2000 RA J2000 Dec Magn Location Ref
2000 11 25.21768 03 18 59.76 +17 00 55.1 21.1 V 691 – Steward Observatory, Kitt Peak-Spacewatch MPS 797915
2000 11 25.24062 03 18 58.56 +17 00 44.5 21.9 V 691 – Steward Observatory, Kitt Peak-Spacewatch MPS 797915
2000 11 25.26417 03 18 57.31 +17 00 34.2 21.7 V 691 – Steward Observatory, Kitt Peak-Spacewatch MPS 797915
2007 04 15.30286 14 13 29.14 -19 28 23.2 20.7 V 691 – Steward Observatory, Kitt Peak-Spacewatch MPS 363036
2007 04 15.31808 14 13 28.38 -19 28 16.6 20.8 V 691 – Steward Observatory, Kitt Peak-Spacewatch MPS 363036
2007 04 15.33329 14 13 27.67 -19 28 10.2 21.0 V 691 – Steward Observatory, Kitt Peak-Spacewatch MPS 363036
2007 04 27.31703 14 03 47.41 -17 55 19.9 21.2 V 691 – Steward Observatory, Kitt Peak-Spacewatch MPS 363036
2007 04 27.33472 14 03 46.57 -17 55 11.4 20.9 V 691 – Steward Observatory, Kitt Peak-Spacewatch MPS 363036
2007 04 27.35239 14 03 45.67 -17 55 02.5 20.9 V 691 – Steward Observatory, Kitt Peak-Spacewatch MPS 363036
2009 10 24.35867 03 25 04.91 +20 38 03.8   691 – Steward Observatory, Kitt Peak-Spacewatch MPS 363036
2009 10 24.37600 03 25 04.15 +20 37 57.3   691 – Steward Observatory, Kitt Peak-Spacewatch MPS 363036
2009 10 24.39325 03 25 03.37 +20 37 50.5   691 – Steward Observatory, Kitt Peak-Spacewatch MPS 363036
2009 11 11.14465 03 10 29.27 +18 28 35.6   691 – Steward Observatory, Kitt Peak-Spacewatch MPS 363036
2009 11 11.16186 03 10 28.33 +18 28 27.6   691 – Steward Observatory, Kitt Peak-Spacewatch MPS 363036
2009 11 11.17907 03 10 27.41 +18 28 19.4   691 – Steward Observatory, Kitt Peak-Spacewatch MPS 363036
2009 11 23.19595 03 00 11.12 +16 53 28.1 20.0 V G96 – Mt. Lemmon Survey MPS 305397
2009 11 23.20141 03 00 10.87 +16 53 25.4 20.1 V G96 – Mt. Lemmon Survey MPS 305397
2009 11 23.20685 03 00 10.58 +16 53 23.0 20.4 V G96 – Mt. Lemmon Survey MPS 305397
2009 11 23.21233 03 00 10.33 +16 53 20.6 20.0 V G96 – Mt. Lemmon Survey MPS 305397
2009 11 24.17758 02 59 24.39 +16 45 54.5 19.9 V G96 – Mt. Lemmon Survey MPS 305397
2009 11 24.18360 02 59 24.10 +16 45 51.6 20.0 V G96 – Mt. Lemmon Survey MPS 305397
2009 11 24.18968 02 59 23.78 +16 45 49.1 20.1 V G96 – Mt. Lemmon Survey MPS 305397
2009 11 24.19586 02 59 23.49 +16 45 45.8 20.2 V G96 – Mt. Lemmon Survey MPS 305397
2009 12 10.16984 02 49 08.61 +14 55 21.2 20.7 V G96 – Mt. Lemmon Survey MPS 363036
2009 12 10.17521 02 49 08.47 +14 55 19.3 20.2 V G96 – Mt. Lemmon Survey MPS 363036
2009 12 10.18069 02 49 08.29 +14 55 17.1 20.4 V G96 – Mt. Lemmon Survey MPS 363036
2009 12 10.18947 02 49 08.07 +14 55 14.4 20.3 V G96 – Mt. Lemmon Survey MPS 363036
2014 12 18.55548 07 05 17.270 +09 39 01.71 20.4 r F51 – Pan-STARRS 1, Haleakala MPS 553181
2014 12 18.57791 07 05 16.108 +09 38 56.98 20.3 r F51 – Pan-STARRS 1, Haleakala MPS 553181
2014 12 18.58899 07 05 15.539 +09 38 54.47 20.3 r F51 – Pan-STARRS 1, Haleakala MPS 553181
2016 02 11.61949 14 10 54.147 -21 14 30.13 21.5 w F51 – Pan-STARRS 1, Haleakala MPS 679119
2016 02 11.62916 14 10 54.434 -21 14 31.52 21.6 w F51 – Pan-STARRS 1, Haleakala MPS 679119
2016 02 11.63885 14 10 54.703 -21 14 33.17 21.6 w F51 – Pan-STARRS 1, Haleakala MPS 679119
2016 02 11.64854 14 10 55.000 -21 14 34.87 21.7 w F51 – Pan-STARRS 1, Haleakala MPS 679119
2016 02 12.58228 14 11 23.655 -21 17 05.69 21.4 w F51 – Pan-STARRS 1, Haleakala MPS 682580
2016 02 12.59442 14 11 23.994 -21 17 07.39 21.4 w F51 – Pan-STARRS 1, Haleakala MPS 682580
2016 02 12.61873 14 11 24.676 -21 17 11.51 21.4 w F51 – Pan-STARRS 1, Haleakala MPS 682580
2016 03 16.49488 14 14 44.648 -21 21 48.31 21.2 w F51 – Pan-STARRS 1, Haleakala MPS 797915
2016 03 16.51832 14 14 44.175 -21 21 44.80 21.8 w F51 – Pan-STARRS 1, Haleakala MPS 797915
2016 03 16.52997 14 14 43.937 -21 21 42.43 21.8 w F51 – Pan-STARRS 1, Haleakala MPS 797915
2016 04 09.43881 14 01 10.261 -19 25 24.24 20.9 w F51 – Pan-STARRS 1, Haleakala MPS 701217
2016 04 09.44908 14 01 09.773 -19 25 20.07 21.2 w F51 – Pan-STARRS 1, Haleakala MPS 701217
2016 04 09.45937 14 01 09.276 -19 25 15.66 21.4 w F51 – Pan-STARRS 1, Haleakala MPS 701217
2016 04 12.44970 13 58 50.436 -19 03 59.72 21.2 w F51 – Pan-STARRS 1, Haleakala MPS 701217
2016 04 12.46134 13 58 49.870 -19 03 54.64 21.0 w F51 – Pan-STARRS 1, Haleakala MPS 701217
2016 04 12.48464 13 58 48.717 -19 03 44.19 20.5 w F51 – Pan-STARRS 1, Haleakala MPS 701217
2016 05 01.03069 13 44 08.74 -16 33 02.2 21.7 V W84 – Cerro Tololo-DECam MPS 785273
2016 05 01.03390 13 44 08.59 -16 33 00.5   W84 – Cerro Tololo-DECam MPS 785273
2016 05 01.03706 13 44 08.45 -16 32 59.0   W84 – Cerro Tololo-DECam MPS 785273
2016 05 01.04342 13 44 08.16 -16 32 55.8   W84 – Cerro Tololo-DECam MPS 785273
2016 05 03.05039 13 42 40.13 -16 15 51.1 21.0 V W84 – Cerro Tololo-DECam MPS 785273
2016 05 03.05358 13 42 39.99 -16 15 49.4   W84 – Cerro Tololo-DECam MPS 785273
2016 05 03.05676 13 42 39.85 -16 15 47.9   W84 – Cerro Tololo-DECam MPS 785273
2016 05 03.05995 13 42 39.72 -16 15 46.2   W84 – Cerro Tololo-DECam MPS 785273
2016 05 03.06314 13 42 39.57 -16 15 44.7   W84 – Cerro Tololo-DECam MPS 785273
2016 05 04.03785 13 41 57.93 -16 07 28.4 21.0 V W84 – Cerro Tololo-DECam MPS 785273
2016 05 04.04104 13 41 57.80 -16 07 26.7   W84 – Cerro Tololo-DECam MPS 785273
2016 05 04.04421 13 41 57.65 -16 07 25.2   W84 – Cerro Tololo-DECam MPS 785273
2016 05 04.04740 13 41 57.52 -16 07 23.6   W84 – Cerro Tololo-DECam MPS 785273
2016 05 04.05061 13 41 57.37 -16 07 22.0   W84 – Cerro Tololo-DECam MPS 785273
2017 07 15.51182 20 28 27.860 -02 21 45.40 20.6 i F51 – Pan-STARRS 1, Haleakala MPS 806505
2017 07 15.52425 20 28 27.242 -02 21 45.43 20.7 i F51 – Pan-STARRS 1, Haleakala MPS 806505
2017 07 15.54913 20 28 26.024 -02 21 45.45 20.3 i F51 – Pan-STARRS 1, Haleakala MPS 806505
2018 10 16.56640 03 11 05.679 +21 09 22.82 20.9 w F52 – Pan-STARRS 2, Haleakala MPS 931116
2018 10 16.58173 03 11 05.086 +21 09 17.38 20.7 w F52 – Pan-STARRS 2, Haleakala MPS 931116
2018 10 16.59709 03 11 04.486 +21 09 11.92 20.6 w F52 – Pan-STARRS 2, Haleakala MPS 931116
2018 10 16.61250 03 11 03.892 +21 09 06.56 20.5 w F52 – Pan-STARRS 2, Haleakala MPS 931116
2018 11 01.33695 02 59 17.98 +19 21 46.3 21.0 G G96 – Mt. Lemmon Survey MPS 937096
2018 11 01.34250 02 59 17.67 +19 21 43.8 21.1 G G96 – Mt. Lemmon Survey MPS 937096
2018 11 01.34807 02 59 17.35 +19 21 41.7 21.0 G G96 – Mt. Lemmon Survey MPS 937096
2018 11 01.35363 02 59 17.07 +19 21 38.6 22.1 G G96 – Mt. Lemmon Survey MPS 937096
2018 11 06.06949 02 55 14.18 +18 44 30.6 20.1 R J04 – ESA Optical Ground Station, Tenerife MPS 967039
2018 11 06.08118 02 55 13.56 +18 44 25.2 20.5 R J04 – ESA Optical Ground Station, Tenerife MPS 967039
2018 11 06.10456 02 55 12.29 +18 44 13.2 20.6 R J04 – ESA Optical Ground Station, Tenerife MPS 967039
2018 11 06.33339 02 55 00.660 +18 42 23.44 20.1 w F52 – Pan-STARRS 2, Haleakala MPS 937096
2018 11 06.34764 02 54 59.891 +18 42 16.61 20.0 w F52 – Pan-STARRS 2, Haleakala MPS 937096
2018 11 06.36188 02 54 59.122 +18 42 09.87 19.9 w F52 – Pan-STARRS 2, Haleakala MPS 937096
2018 11 06.37609 02 54 58.357 +18 42 02.99 19.9 w F52 – Pan-STARRS 2, Haleakala MPS 937096
2018 11 08.69042 02 52 57.59 +18 23 16.7 20.6 R D29 – Purple Mountain Observatory, XuYi Station MPS 942456
2018 11 08.70457 02 52 56.86 +18 23 10.4 20.6 R D29 – Purple Mountain Observatory, XuYi Station MPS 942456
2018 11 08.71871 02 52 56.06 +18 23 03.1 20.1 R D29 – Purple Mountain Observatory, XuYi Station MPS 942456
2018 11 09.25374 02 52 28.50 +18 18 41.0 20.5 G G96 – Mt. Lemmon Survey MPS 938778
2018 11 09.25899 02 52 28.17 +18 18 38.6 20.9 G G96 – Mt. Lemmon Survey MPS 938778
2018 11 09.26895 02 52 27.64 +18 18 33.8 20.8 G G96 – Mt. Lemmon Survey MPS 938778
2018 11 09.27418 02 52 27.38 +18 18 31.0 21.0 G G96 – Mt. Lemmon Survey MPS 938778
2018 11 13.27593 02 49 01.227 +17 45 40.30 20.2 w F52 – Pan-STARRS 2, Haleakala MPS 952148
2018 11 13.28972 02 49 00.501 +17 45 33.65 20.0 w F52 – Pan-STARRS 2, Haleakala MPS 952148
2018 11 13.30341 02 48 59.782 +17 45 26.91 20.1 w F52 – Pan-STARRS 2, Haleakala MPS 952148
2018 11 13.31712 02 48 59.059 +17 45 20.24 20.1 w F52 – Pan-STARRS 2, Haleakala MPS 952148
2018 12 12.16520 02 30 49.52 +14 16 00.1 21.1 G G96 – Mt. Lemmon Survey MPS 967039
